Flag for India Weather past 2 weeks in Lucknow, Uttar Pradesh, India

Now
82 °F

Passing clouds.


Feels Like: 83 °F
Forecast: 80 / 109 °F
Wind: 5 mph from Northeast

Location: Lucknow / Amausi

Current Time: May 7, 2015 at 5:17:43 AM

Latest Report: May 7, 2015 at 4:00 AM


Visibility: 2 mi

Pressure: 29.65 "Hg

Humidity: 48%

Dew point: 61 °F

Location of LucknowLocation

Historic Weather in Lucknow — Graph

°F

Lucknow temperature yesterday

Maximum temperature yesterday: 109 °F (at 3:00 PM)
Minimum temperature yesterday: 75 °F (at 4:00 AM)
Average temperature yesterday: 93 °F

Past Weeks' High & Low Weather Summary

 TemperatureHumidityPressure
High109 °F (May 6, 3:00 PM)100% (Apr 28, 8:00 AM)29.92 "Hg (Apr 28, 8:00 AM)
Low68 °F (Apr 28, 8:00 AM)12% (May 5, 2:00 PM)29.53 "Hg (May 6, 4:00 PM)
Average88 °F47%29.71 "Hg
* Reported Apr 22 3:00 AM — May 7 3:00 AM, Lucknow, Weather by CustomWeather, © 2015

Note: Actual official high and low records may vary slightly from our data, if they occured in-between our weather recording intervals... More about our weather records

Advertising

Lucknow weather history for previous 24 hours

 ConditionsComfort  
Time TempWeatherWind HumidityBarometerVisibility
3:00 AM
Thu, May 7
82 °FHaze.No wind48%29.62 "Hg2 mi
2:00 AM82 °FHaze.No wind51%29.62 "Hg2 mi
1:00 AM84 °FHaze.No wind48%29.62 "Hg2 mi
12:00 AM84 °FHaze.No wind48%29.62 "Hg2 mi
11:00 PM
Wed, May 6
84 °FHaze.No wind51%29.62 "Hg2 mi
10:00 PM86 °FClear.No wind49%29.62 "Hg2 mi
9:00 PM90 °FClear.No wind43%29.59 "Hg2 mi
8:30 PM90 °FClear.No wind46%29.59 "Hg2 mi
8:00 PM91 °FClear.No wind36%29.59 "Hg2 mi
7:30 PM93 °FClear.No wind36%29.56 "Hg2 mi
6:30 PM100 °FDuststorm.No wind27%29.53 "Hg3 mi
6:00 PM104 °FDuststorm.No wind24%29.53 "Hg3 mi
5:30 PM106 °FDuststorm.No wind22%29.53 "Hg3 mi
5:00 PM109 °FHaze.No wind17%29.53 "Hg3 mi
4:30 PM109 °FDuststorm.2 mph17%29.53 "Hg3 mi
4:00 PM109 °FDuststorm.2 mph18%29.53 "Hg3 mi
3:30 PM109 °FDuststorm.2 mph16%29.56 "Hg3 mi
3:00 PM109 °FDuststorm.2 mph16%29.56 "Hg3 mi
2:30 PM108 °FDuststorm.2 mph19%29.59 "Hg3 mi
2:00 PM108 °FDuststorm.2 mph18%29.59 "Hg3 mi
1:30 PM108 °FDuststorm.5 mph18%29.80 "Hg3 mi
1:00 PM108 °FDuststorm.7 mph18%29.62 "Hg3 mi
12:30 PM106 °FDuststorm.5 mph19%29.62 "Hg3 mi
11:00 AM102 °FHaze.6 mph21%29.65 "Hg2 mi
10:30 AM100 °FHaze.5 mph22%29.68 "Hg2 mi
9:30 AM95 °FHaze.2 mph26%29.68 "Hg2 mi
8:30 AM88 °FHaze.2 mph33%29.68 "Hg2 mi
8:00 AM84 °FHaze.No wind37%29.68 "Hg2 mi
7:30 AM82 °FHaze.No wind51%29.68 "Hg2 mi
7:00 AM79 °FHaze.No wind51%29.65 "Hg2 mi
6:30 AM75 °FHaze.No wind57%29.65 "Hg2 mi
6:00 AM75 °FHaze.No wind50%29.65 "Hg2 mi
5:30 AM75 °FHaze.No wind50%29.62 "Hg2 mi
5:00 AM75 °FHaze.No wind50%29.62 "Hg2 mi
Weather by CustomWeather, © 2015

See weather overviewHow to use our weather pages